DW3979 Weather Reports


Display with metric or nautical units.
time (UTC)temp
F
wind
direction
speed
MPH
gust
MPH
rain 1hr
in
rain 24hr
in
rain mn
in
humidity
%
barometer
mb
20260505184024 62 138 4.0 9.0 0.00 0.00 0.00 40 1013.1
20260505183524 63 145 4.0 9.0 0.00 0.00 0.00 38 1013.3
20260505182524 63 138 4.0 14.0 0.00 0.00 0.00 40 1013.3
20260505182023 63 96 4.0 12.0 0.00 0.00 0.00 41 1013.2
20260505181523 63 111 4.0 12.0 0.00 0.00 0.00 40 1013.4
20260505181020 62 114 4.0 10.0 0.00 0.00 0.00 41 1013.3
20260505180519 64 148 4.0 10.0 0.00 0.00 0.00 39 1013.3
20260505180017 64 153 4.0 11.0 0.00 0.00 0.00 41 1013.3
20260505175516 63 155 4.0 11.0 0.00 0.00 0.00 43 1013.3
20260505174514 63 130 4.0 10.0 0.00 0.00 0.00 43 1013.4
20260505174012 62 139 4.0 7.0 0.00 0.00 0.00 45 1013.3
20260505173512 62 147 3.0 6.0 0.00 0.00 0.00 44 1013.3
20260505173014 62 150 3.0 7.0 0.00 0.00 0.00 44 1013.3
20260505172512 62 128 4.0 9.0 0.00 0.00 0.00 47 1013.2
20260505172010 60 163 3.0 9.0 0.00 0.00 0.00 47 1013.2
20260505171509 59 146 3.0 8.0 0.00 0.00 0.00 48 1013.3
20260505171010 59 158 3.0 8.0 0.00 0.00 0.00 49 1013.4
20260505170509 59 150 2.0 5.0 0.00 0.00 0.00 49 1013.3
20260505170009 59 117 2.0 7.0 0.00 0.00 0.00 49 1013.3
20260505165508 58 190 1.0 7.0 0.00 0.00 0.00 50 1013.3
20260505165007 58 182 2.0 6.0 0.00 0.00 0.00 50 1013.3
20260505164508 58 164 3.0 6.0 0.00 0.00 0.00 50 1013.3
20260505164004 57 262 3.0 7.0 0.00 0.00 0.00 50 1013.3
20260505163003 56 221 2.0 4.0 0.00 0.00 0.00 56 1013.4
20260505162502 56 167 3.0 9.0 0.00 0.00 0.00 55 1013.5
20260505161002 57 168 3.0 6.0 0.00 0.00 0.00 55 1013.8
20260505160502 57 153 3.0 11.0 0.00 0.00 0.00 54 1013.7
20260505152958 57 128 3.0 6.0 0.00 0.00 0.00 56 1013.8
20260505152457 56 132 4.0 8.0 0.00 0.00 0.00 55 1013.8
20260505151956 57 167 4.0 8.0 0.00 0.00 0.00 54 1013.8
20260505151455 57 146 4.0 8.0 0.00 0.00 0.00 54 1013.8
20260505150956 58 167 3.0 7.0 0.00 0.00 0.00 53 1013.8
20260505150448 58 128 2.0 7.0 0.00 0.00 0.00 55 1013.8
20260505140438 53 174 0.0 0.0 0.00 0.00 0.00 59 1013.9
20260505124917 53 192 1.0 3.0 0.00 0.00 0.00 50 1013.4
20260505124416 53 192 1.0 3.0 0.00 0.00 0.00 51 1013.3
20260505123914 52 191 1.0 3.0 0.00 0.00 0.00 52 1013.2
20260505123414 52 191 1.0 2.0 0.00 0.00 0.00 52 1013.2
20260505122917 52 191 1.0 2.0 0.00 0.00 0.00 52 1013.2
20260505122415 52 191 1.0 2.0 0.00 0.00 0.00 53 1013.2
20260505121914 52 191 0.0 1.0 0.00 0.00 0.00 53 1013.2
20260505121412 52 191 0.0 0.0 0.00 0.00 0.00 55 1013.2
20260505120911 53 191 0.0 2.0 0.00 0.00 0.00 55 1013.1
20260505120410 53 191 1.0 4.0 0.00 0.00 0.00 54 1013.1
20260505115909 53 191 1.0 4.0 0.00 0.00 0.00 54 1013.1
20260505115411 53 190 0.0 2.0 0.00 0.00 0.00 56 1013.1
20260505114910 53 244 0.0 2.0 0.00 0.00 0.00 57 1013.1
20260505114411 53 244 1.0 2.0 0.00 0.00 0.00 57 1013.2
20260505113906 53 244 0.0 2.0 0.00 0.00 0.00 57 1013.2
20260505111902 54 272 0.0 0.0 0.00 0.00 0.00 54 1013.3
20260505111402 55 272 0.0 0.0 0.00 0.00 0.00 54 1013.3
20260505110902 55 272 0.0 2.0 0.00 0.00 0.00 53 1013.4
20260505110402 55 272 1.0 3.0 0.00 0.00 0.00 53 1013.3
20260505101858 54 193 0.0 0.0 0.00 0.00 0.00 53 1013.8
20260505101358 54 193 0.0 0.0 0.00 0.00 0.00 52 1013.7
20260505100858 55 193 0.0 0.0 0.00 0.00 0.00 52 1013.8
20260505100357 55 193 0.0 0.0 0.00 0.00 0.00 52 1013.8
20260505095356 55 193 0.0 2.0 0.00 0.00 0.00 52 1013.9
20260505091346 55 182 0.0 1.0 0.00 0.00 0.00 51 1014.6
20260505090846 54 182 0.0 3.0 0.00 0.00 0.00 51 1014.6
20260505090346 54 182 0.0 3.0 0.00 0.00 0.00 53 1014.4
20260505084844 54 182 0.0 0.0 0.00 0.00 0.00 57 1014.8
20260505083842 53 182 0.0 2.0 0.00 0.00 0.00 56 1014.7
20260505083342 54 182 0.0 2.0 0.00 0.00 0.00 57 1014.8
20260505082842 54 182 0.0 0.0 0.00 0.00 0.00 56 1014.8
20260505082343 53 182 0.0 0.0 0.00 0.00 0.00 56 1014.8
20260505081840 54 182 0.0 0.0 0.00 0.00 0.00 55 1014.8
20260505081343 54 182 0.0 2.0 0.00 0.00 0.00 54 1014.7
20260505080834 54 182 0.0 2.0 0.00 0.00 0.00 55 1014.7
20260505075832 54 182 0.0 2.0 0.00 0.00 0.00 52 1014.9
20260505075331 54 182 0.0 0.0 0.00 0.00 0.00 48 1014.8
20260505074828 54 182 0.0 0.0 0.00 0.00 0.00 48 1014.9
20260505073826 54 182 0.0 1.0 0.00 0.00 0.00 46 1015.0
20260505073325 54 182 0.0 2.0 0.00 0.00 0.00 48 1015.0
20260505072824 54 182 0.0 2.0 0.00 0.00 0.00 45 1014.9
20260505072322 54 182 0.0 0.0 0.00 0.00 0.00 44 1015.0
20260505071822 54 182 0.0 0.0 0.00 0.00 0.00 43 1014.9
20260505071320 54 182 0.0 0.0 0.00 0.00 0.00 42 1014.9
20260505070821 55 182 0.0 0.0 0.00 0.00 0.00 42 1014.9
20260505065815 55 182 0.0 0.0 0.00 0.00 0.00 42 1015.0
20260505064812 55 182 0.0 0.0 0.00 0.00 0.00 41 1015.0
20260505064311 55 182 0.0 2.0 0.00 0.00 0.00 40 1015.1
20260505063811 55 182 0.0 2.0 0.00 0.00 0.00 38 1015.0
20260505063309 56 182 0.0 2.0 0.00 0.00 0.00 38 1015.0
20260505062809 56 182 0.0 0.0 0.00 0.00 0.00 36 1015.0
20260505061807 56 182 0.0 0.0 0.00 0.00 0.00 36 1014.9
20260505061305 56 182 0.0 0.0 0.00 0.00 0.00 35 1015.0
20260505060804 56 182 0.0 0.0 0.00 0.00 0.00 35 1015.1
20260505055801 57 182 1.0 3.0 0.00 0.00 0.00 34 1014.9
20260505055259 57 182 1.0 3.0 0.00 0.00 0.00 35 1015.0
20260505054759 57 175 1.0 3.0 0.00 0.00 0.00 36 1015.1
20260505054259 57 150 1.0 3.0 0.00 0.00 0.00 37 1015.1
20260505053257 57 135 1.0 4.0 0.00 0.00 0.00 37 1015.1
20260505052257 57 122 0.0 2.0 0.00 0.00 0.00 40 1015.1
20260505050258 58 128 0.0 3.0 0.00 0.00 0.00 41 1015.4
20260505041747 59 129 1.0 4.0 0.00 0.00 0.00 42 1015.4
20260505041245 59 129 1.0 6.0 0.00 0.00 0.00 41 1015.2
20260505040745 59 130 1.0 6.0 0.00 0.00 0.00 40 1015.1
20260505040244 59 176 1.0 4.0 0.00 0.00 0.00 40 1015.1
20260505035744 59 176 2.0 5.0 0.00 0.00 0.00 40 1015.0
20260505035245 59 128 1.0 5.0 0.00 0.00 0.00 40 1014.7
20260505034744 59 144 2.0 4.0 0.00 0.00 0.00 41 1014.8
20260505034245 59 129 2.0 5.0 0.00 0.00 0.00 41 1015.1
20260505033745 59 190 3.0 5.0 0.00 0.00 0.00 41 1014.9
20260505033245 59 145 3.0 4.0 0.00 0.00 0.00 41 1014.8
20260505032744 59 183 2.0 5.0 0.00 0.00 0.00 42 1014.8
20260505032245 59 124 1.0 5.0 0.00 0.00 0.00 41 1014.8
20260505031745 59 164 1.0 3.0 0.00 0.00 0.00 42 1014.6
20260505031245 59 146 1.0 3.0 0.00 0.00 0.00 41 1014.4
20260505030744 60 153 2.0 3.0 0.00 0.00 0.00 42 1014.4
20260505030244 60 126 2.0 5.0 0.00 0.00 0.00 42 1014.3
20260505025745 60 117 2.0 5.0 0.00 0.00 0.00 41 1014.3
20260505024745 60 143 2.0 5.0 0.00 0.00 0.00 40 1014.2
20260505024244 60 145 2.0 5.0 0.00 0.00 0.00 40 1014.2
20260505023745 60 143 2.0 7.0 0.00 0.00 0.00 40 1014.1
20260505023244 61 101 4.0 10.0 0.00 0.00 0.00 37 1014.2
20260505022744 61 138 4.0 10.0 0.00 0.00 0.00 38 1014.1
20260505022244 61 144 3.0 8.0 0.00 0.00 0.00 38 1014.0
20260505021744 61 150 4.0 8.0 0.00 0.00 0.00 37 1013.9
20260505021245 61 146 4.0 10.0 0.00 0.00 0.00 37 1014.0
20260505020245 62 142 3.0 8.0 0.00 0.00 0.00 36 1013.9
20260504205207 69 81 5.0 13.0 0.00 0.00 0.00 33 1014.7
20260504204204 68 155 4.0 11.0 0.00 0.00 0.00 34 1014.8
20260504203202 69 163 5.0 10.0 0.00 0.00 0.00 34 1014.8
20260504202703 69 184 5.0 11.0 0.00 0.00 0.00 35 1014.9
20260504202202 68 123 5.0 11.0 0.00 0.00 0.00 34 1014.9
20260504201701 68 144 4.0 10.0 0.00 0.00 0.00 36 1014.8
20260504201158 67 140 4.0 12.0 0.00 0.00 0.00 35 1014.7
20260504200658 67 163 5.0 12.0 0.00 0.00 0.00 34 1015.0
20260504200201 67 112 4.0 10.0 0.00 0.00 0.00 36 1015.0
20260504195658 67 160 4.0 9.0 0.00 0.00 0.00 37 1015.2
20260504195158 67 137 4.0 12.0 0.00 0.00 0.00 36 1015.1
20260504194658 67 144 4.0 12.0 0.00 0.00 0.00 36 1014.9
20260504193159 67 148 4.0 12.0 0.00 0.00 0.00 36 1014.9
20260504192657 68 153 4.0 11.0 0.00 0.00 0.00 37 1014.9
20260504192156 68 167 4.0 11.0 0.00 0.00 0.00 34 1015.0
20260504191657 68 149 4.0 9.0 0.00 0.00 0.00 36 1015.1
20260504191156 67 158 4.0 9.0 0.00 0.00 0.00 38 1015.1
20260504190656 67 121 3.0 9.0 0.00 0.00 0.00 39 1015.1
20260504185657 66 163 4.0 9.0 0.00 0.00 0.00 38 1015.2
20260504185156 66 157 5.0 13.0 0.00 0.00 0.00 41 1015.2
20260504184657 66 126 5.0 13.0 0.00 0.00 0.00 41 1015.1